Wind_Speed
19 19 18 17 17 18 19 20 20 23 28 32 34 38 39 40 41 41 41 43 44 44 44 44 44 44 44 44 44 43 42 41 40 38 37 37 37 36 35 35 35 35 35 35 36 37 36 34 33 32 31 31 30 29 28 25 24 25 25 22 22 22 20
17 17 18 17 17 19 20 21 21 24 29 32 35 37 39 40 41 41 41 43 45 45 45 46 45 44 45 44 43 42 42 41 40 38 36 36 36 36 36 36 36 36 36 36 36 37 37 36 34 33 32 32 32 31 30 27 25 26 26 24 23 23 22
17 17 17 17 17 19 20 19 20 25 29 31 34 36 38 41 43 44 43 43 44 44 44 45 45 45 45 44 42 41 42 41 40 38 37 37 37 36 36 36 36 37 36 36 37 38 38 37 36 35 34 34 33 33 31 28 26 27 26 25 24 23 23
18 19 19 19 19 19 19 19 19 24 29 33 37 39 41 44 44 45 45 45 45 43 42 44 44 45 45 44 42 41 41 41 40 39 38 37 37 36 36 36 36 37 37 37 38 38 38 37 37 36 35 35 35 34 33 30 28 27 27 27 25 24 23
19 19 18 18 18 17 16 17 18 23 29 34 38 40 42 44 43 43 43 44 45 45 45 46 45 44 44 43 42 41 41 41 40 39 38 37 36 36 36 37 37 37 38 39 39 39 38 38 38 37 37 37 36 36 34 31 29 27 27 28 27 26 24
17 17 16 16 16 16 16 18 20 26 31 34 37 39 40 41 41 42 42 42 43 44 44 44 44 43 43 42 41 39 39 40 40 39 38 37 36 36 37 38 38 38 39 39 39 39 39 39 39 38 38 38 38 37 35 34 32 29 28 28 28 27 25
16 16 16 16 16 16 18 19 20 28 33 35 36 37 37 39 40 41 41 41 41 42 41 42 43 43 42 41 40 39 39 39 39 38 38 37 37 37 38 39 40 40 39 39 40 39 39 39 39 40 40 40 39 38 37 36 34 31 29 30 30 29 28
18 17 16 16 17 17 18 18 18 23 28 29 31 32 35 38 39 39 40 41 41 41 41 42 43 43 42 40 40 40 40 39 39 38 38 38 38 38 38 39 40 41 40 40 40 40 40 40 40 40 41 41 40 39 38 37 35 33 32 32 32 32 31
18 18 18 19 19 17 16 16 17 19 23 25 28 32 35 37 37 39 41 40 40 40 42 43 43 43 42 40 40 41 40 39 38 38 38 38 38 39 39 39 41 41 41 41 41 40 41 41 41 41 41 42 41 40 39 38 36 35 34 34 35 34 34
17 18 19 19 19 16 15 15 14 15 17 20 25 30 33 35 36 37 38 38 40 41 42 43 42 42 41 40 40 40 40 39 38 38 39 39 40 40 40 40 40 41 41 41 40 40 41 41 40 41 41 42 42 40 39 38 37 37 36 36 37 37 36
16 18 19 19 18 15 14 14 13 14 14 16 22 27 30 33 34 35 36 38 40 40 41 42 41 41 41 41 40 40 40 40 39 39 40 40 40 40 41 40 40 41 41 40 40 40 41 41 40 40 42 42 42 40 40 40 39 39 38 38 39 38 37
15 16 16 17 16 13 13 13 14 16 15 16 21 26 30 33 34 35 36 38 38 38 40 41 41 40 40 40 40 40 41 41 40 40 41 41 41 41 41 41 40 40 40 40 40 40 40 40 40 41 42 42 41 40 40 41 41 41 40 39 39 38 37
14 14 14 15 14 12 12 13 15 17 16 17 23 28 31 34 35 36 35 36 37 38 40 41 41 40 40 40 40 40 41 42 42 42 42 42 42 41 41 41 41 40 40 40 40 39 39 40 41 42 42 41 40 40 40 41 42 42 40 40 40 38 36
14 13 12 12 12 13 14 14 16 17 16 17 22 28 31 33 35 36 36 36 38 38 38 40 40 40 40 40 40 41 42 43 43 43 43 42 42 42 41 41 41 40 39 39 39 39 39 40 40 40 39 39 40 40 40 41 42 42 41 41 39 37 35
15 14 14 14 13 13 15 15 16 16 16 17 20 24 27 30 32 34 34 36 37 38 39 40 40 40 39 40 41 42 43 42 42 42 42 42 41 42 42 41 40 39 39 38 39 40 40 39 39 38 38 38 38 39 40 42 43 44 43 41 39 37 34
15 16 15 15 15 15 16 17 17 17 17 16 17 20 24 27 30 33 34 35 37 38 40 40 39 39 39 40 42 42 41 41 41 40 41 41 42 42 42 41 40 39 38 38 39 39 39 38 37 37 38 38 38 39 40 42 44 45 44 42 39 35 31
13 14 14 15 15 16 16 17 16 17 17 16 17 21 25 27 31 33 34 34 36 39 40 39 39 40 40 42 41 39 39 40 40 39 40 41 41 41 41 40 39 39 38 38 38 38 38 37 37 38 39 38 39 39 40 43 45 45 44 42 36 29 27
13 14 14 13 13 12 13 15 15 15 15 15 17 22 26 29 30 31 32 35 38 40 40 40 40 41 41 41 39 38 39 40 40 39 40 41 41 41 40 39 38 38 38 38 38 38 37 37 37 39 39 38 39 40 42 44 45 45 43 39 33 30 33
12 13 14 13 12 12 13 13 13 14 15 15 19 26 32 33 32 32 36 40 41 40 39 39 40 41 41 40 38 39 40 40 40 40 40 41 41 40 38 38 38 38 38 39 39 38 37 37 38 38 39 39 40 41 42 43 44 44 40 35 36 38 40
12 13 14 14 14 15 14 12 12 14 18 23 28 33 36 36 36 38 41 41 40 39 39 40 40 39 39 38 38 40 41 40 40 40 41 41 40 38 38 38 38 38 39 39 38 36 37 38 38 39 39 40 41 41 42 42 43 41 37 36 40 42 39
10 11 12 12 13 15 16 16 16 15 17 24 30 32 32 33 36 38 38 37 36 37 39 40 39 38 37 37 38 40 40 40 40 40 40 39 39 39 39 39 38 38 38 37 37 38 39 39 39 39 39 40 40 40 40 41 40 37 36 38 42 42 38
5 7 9 10 12 14 15 16 17 19 22 27 31 31 32 35 38 37 34 34 34 35 37 38 37 36 36 37 38 39 41 41 41 39 39 39 39 39 39 39 38 38 38 37 37 38 38 38 39 39 39 39 39 39 39 38 36 35 37 38 39 40 38
6 4 5 5 7 9 12 15 18 21 25 27 29 31 33 36 38 35 32 32 32 33 34 34 33 35 36 37 39 40 41 42 41 39 39 39 39 39 40 39 39 39 39 38 37 37 38 38 39 39 38 38 38 38 36 34 33 34 37 37 36 38 38
9 8 7 6 5 6 9 14 18 21 22 21 22 28 31 32 32 31 29 29 31 32 31 31 33 35 36 37 40 41 42 42 42 40 39 39 40 40 39 39 39 39 39 39 39 38 38 38 37 36 37 37 38 38 36 34 34 34 36 37 36 38 40
9 8 8 7 5 5 8 13 16 19 19 17 19 24 27 27 28 27 26 27 30 30 29 30 34 37 38 40 42 42 42 42 42 42 40 40 41 41 40 40 40 40 40 39 39 37 36 36 35 34 35 36 37 39 38 36 35 35 36 36 36 38 40
9 8 8 8 7 6 8 11 12 12 13 16 22 26 26 27 27 25 25 28 29 28 29 34 39 41 42 42 40 40 41 42 42 43 42 42 41 40 40 40 39 38 38 37 36 35 33 33 34 33 34 35 37 38 38 36 34 34 35 35 36 38 38
8 8 8 9 11 10 6 7 10 12 16 21 26 25 23 24 25 25 28 29 25 26 34 40 42 41 40 38 37 38 41 42 43 43 42 42 41 39 39 39 38 37 37 35 34 32 31 31 32 33 33 34 35 34 34 33 33 34 34 35 36 37 38
8 10 11 11 13 13 10 5 4 8 14 19 22 21 19 19 20 22 25 24 25 34 42 42 40 38 37 36 37 38 40 40 41 41 41 40 40 38 37 37 36 36 35 33 31 30 29 30 30 29 29 29 30 30 31 32 32 32 33 35 35 36 38
8 8 9 10 11 12 11 6 2 2 7 12 16 18 19 20 19 18 17 18 24 33 36 35 35 36 35 35 36 37 38 39 39 39 39 39 40 38 36 34 34 34 33 31 30 30 29 28 27 25 23 23 24 27 30 31 31 31 32 33 34 35 38
10 9 9 9 11 14 12 7 6 4 2 7 10 14 18 20 19 16 15 18 22 22 21 24 28 30 31 32 34 34 35 37 38 39 38 39 39 37 35 34 34 33 32 32 31 29 27 25 25 23 22 21 22 24 27 30 31 30 30 31 33 35 38
10 11 11 11 14 17 15 11 10 11 9 7 4 4 11 17 19 17 16 20 21 18 18 22 24 26 28 30 31 33 34 34 36 37 38 40 40 38 36 35 33 30 29 29 28 26 24 23 23 23 22 22 21 22 25 27 27 28 29 30 32 34 36
9 10 11 11 14 17 16 14 13 12 12 16 19 13 5 3 8 10 11 16 20 22 25 27 25 24 24 25 27 30 32 33 33 34 36 38 38 37 36 35 33 29 27 26 25 24 24 24 24 23 23 22 22 23 25 25 25 27 30 32 33 34 35
9 9 10 11 13 14 13 11 11 11 11 16 21 20 15 11 10 8 7 10 15 21 26 28 28 25 23 24 26 28 31 32 32 32 33 33 32 32 31 31 31 29 28 27 25 25 24 25 24 23 22 22 22 24 25 26 27 28 31 33 34 34 33
8 9 10 12 14 13 11 9 10 11 11 13 18 19 16 15 15 14 13 12 12 16 18 17 19 22 22 21 21 22 25 29 31 33 31 29 29 28 27 27 29 28 27 28 28 27 26 25 25 24 24 24 24 23 22 22 24 27 30 32 33 33 32
8 8 10 13 14 12 10 10 11 12 12 12 16 18 16 15 15 15 17 18 18 20 21 18 15 14 16 18 15 13 16 22 29 35 36 34 32 29 24 24 27 27 26 27 28 29 28 26 26 27 27 27 27 24 21 21 25 29 29 29 30 31 32
8 8 10 12 14 12 11 10 10 12 11 10 12 15 14 13 12 13 15 20 23 26 27 25 20 16 13 15 17 18 20 22 28 34 37 37 35 31 25 22 24 25 25 24 24 26 27 26 26 27 28 28 28 27 25 25 28 29 28 27 28 30 31
11 10 11 12 12 11 12 12 11 10 9 7 7 9 9 10 11 12 13 17 22 26 29 29 26 22 17 16 18 20 21 22 24 30 34 35 34 33 28 24 21 19 21 21 21 21 23 23 23 24 25 25 26 27 27 26 25 25 26 27 29 30 30
17 17 16 16 16 14 13 13 12 11 10 9 8 8 6 7 10 13 16 19 22 25 27 26 26 25 23 22 23 23 22 22 23 28 32 32 31 30 28 25 23 20 18 18 19 19 19 19 19 20 21 22 22 25 26 24 23 24 26 28 28 27 27
Wind_Direction
189 189 188 188 188 189 191 192 192 191 189 190 191 191 190 190 190 190 191 192 193 194 194 195 196 198 201 204 205 206 207 208 208 207 206 206 207 206 205 206 207 208 206 204 205 205 205 205 204 205 208 210 211 214 215 215 212 205 205 209 214 219 218
188 189 190 189 188 190 193 193 192 191 190 191 191 190 190 191 191 191 192 193 194 195 195 195 196 199 202 205 206 207 207 209 209 209 208 208 208 208 207 207 207 208 209 208 208 207 206 205 205 206 209 210 212 214 215 217 213 207 207 211 213 215 216
190 190 189 189 190 191 192 192 192 192 191 190 190 190 191 192 192 192 192 193 195 196 196 196 197 199 202 205 206 207 208 209 209 209 209 209 209 209 209 208 208 209 211 212 210 207 206 206 206 207 209 210 212 214 215 217 215 209 209 211 212 213 215
192 190 188 190 192 193 192 190 192 192 191 191 191 191 192 193 193 193 194 194 195 195 195 197 198 200 202 204 205 207 208 208 209 209 210 210 210 210 209 209 209 209 211 211 208 206 205 206 206 208 210 211 211 213 216 218 215 211 210 212 215 216 217
195 190 188 190 191 193 192 190 191 191 191 193 192 192 192 193 193 194 195 196 195 196 197 198 199 200 202 203 205 206 208 209 209 209 210 211 210 210 209 209 208 208 209 209 207 206 206 206 207 208 210 210 212 214 217 218 215 212 211 213 218 219 219
195 191 188 190 191 192 192 192 192 191 192 192 192 192 191 191 192 194 196 196 196 197 197 198 199 200 201 203 204 206 207 209 209 209 210 211 210 210 210 210 209 208 209 208 207 207 208 208 208 209 209 209 212 215 217 217 216 214 212 213 219 221 219
192 191 190 190 191 193 193 193 193 193 193 191 189 189 188 189 192 193 195 196 196 196 197 197 199 200 201 202 203 205 206 208 209 209 210 210 211 211 211 210 210 210 209 208 209 209 209 209 209 209 209 209 212 215 216 216 215 214 213 213 218 221 219
192 189 191 192 193 196 194 192 193 193 191 187 185 185 187 190 191 193 195 196 195 195 196 197 199 200 201 201 202 204 206 207 208 208 209 210 211 212 212 212 211 211 210 210 210 210 210 211 210 210 210 210 213 215 215 216 215 214 214 214 217 220 220
192 189 192 195 196 196 192 190 192 189 184 182 183 185 187 189 191 193 195 194 193 195 197 198 199 199 200 200 202 204 205 206 208 208 209 210 212 213 213 213 212 211 211 211 211 211 212 212 212 211 211 211 213 213 214 215 215 215 215 216 217 218 220
189 190 195 198 197 195 191 188 185 182 182 182 183 185 188 190 193 194 194 193 194 196 197 198 199 199 198 199 201 203 204 205 206 207 208 210 212 213 213 213 213 212 212 212 211 212 213 213 213 212 211 211 212 212 212 214 215 215 217 218 219 218 219
189 193 198 199 197 192 185 180 177 180 183 183 182 184 187 191 194 195 194 195 195 196 196 197 198 197 197 199 200 201 202 204 205 206 208 210 212 213 213 213 213 212 212 211 211 213 213 213 212 212 211 212 212 211 211 214 216 217 217 220 221 220 219
193 196 199 198 194 185 178 176 179 183 183 181 181 182 186 191 194 195 196 196 196 196 196 197 198 197 197 198 199 200 202 203 204 206 208 210 211 213 213 213 213 212 212 211 212 213 213 213 212 212 213 212 211 211 211 214 218 219 219 220 221 221 220
197 196 196 195 189 181 178 178 181 183 184 183 182 184 187 191 193 195 196 196 196 197 196 197 197 196 196 197 198 200 201 202 203 205 207 209 211 212 213 213 213 213 212 212 212 213 213 213 213 214 213 212 211 212 213 215 218 219 219 220 222 221 220
198 196 192 191 189 182 179 181 182 183 185 185 185 187 189 192 194 195 196 196 196 197 197 197 197 196 196 197 199 200 202 202 203 205 207 209 210 212 213 214 213 213 212 212 212 213 215 214 214 214 213 213 212 213 214 217 218 219 219 220 221 221 220
195 195 192 190 190 185 183 184 183 183 185 187 188 188 189 192 194 195 196 196 196 197 198 198 197 197 196 197 200 202 202 202 203 205 206 208 209 211 213 214 214 213 213 212 213 214 216 216 216 214 213 213 213 213 215 217 219 220 219 218 219 220 220
195 197 193 191 190 187 188 188 184 184 186 187 188 188 188 192 195 195 196 197 196 198 199 198 196 197 197 199 202 202 201 201 202 204 205 207 209 210 211 213 213 213 213 213 214 214 215 216 216 215 214 213 212 213 215 217 221 221 220 219 218 218 219
196 199 195 195 193 190 190 188 185 186 186 187 189 189 190 193 195 197 197 197 197 200 199 197 197 199 199 202 203 200 199 201 202 203 204 206 209 210 211 212 212 213 213 213 214 215 215 215 215 215 215 214 213 214 215 219 222 222 220 218 213 212 220
193 196 195 196 194 192 193 190 187 186 186 189 191 191 194 195 195 196 197 198 200 201 199 197 199 200 202 203 202 199 199 201 201 202 204 206 208 210 210 211 211 212 213 213 214 215 214 214 214 215 215 214 214 215 217 221 223 222 220 213 203 211 226
190 189 189 189 186 187 191 191 188 186 186 191 194 196 198 196 194 197 199 200 201 200 198 199 201 202 203 203 200 198 200 201 200 202 204 205 207 208 209 209 210 211 212 213 215 214 213 214 215 215 215 214 215 216 219 222 223 222 219 205 200 215 226
192 190 189 189 186 186 186 187 190 191 192 195 198 200 201 198 197 201 202 202 200 197 197 200 202 202 202 201 199 199 200 200 200 202 204 205 205 206 207 208 210 211 212 213 214 213 213 214 215 215 215 214 215 217 219 223 223 221 215 205 206 216 221
199 191 190 190 189 190 189 188 190 194 198 200 200 201 200 199 202 204 205 203 200 198 198 200 202 202 202 200 200 199 199 199 201 202 203 203 203 204 206 207 208 210 211 212 213 213 214 214 215 215 215 215 215 217 219 222 222 218 212 211 214 213 211
232 205 198 195 196 199 197 194 194 195 198 200 200 200 199 200 203 204 204 203 201 201 202 201 201 202 201 200 200 199 199 199 201 201 201 201 200 202 204 205 206 208 209 211 213 214 215 215 215 215 215 214 215 216 219 221 220 215 212 215 215 208 205
334 291 244 222 216 216 212 208 207 205 203 200 200 200 200 202 203 202 201 200 200 203 204 202 202 202 201 201 200 200 199 199 199 200 199 198 199 201 203 203 205 206 207 208 211 212 213 214 215 215 214 213 213 214 216 217 216 214 213 214 213 207 206
360 341 313 291 267 249 239 228 221 218 214 207 204 206 205 203 202 200 199 198 198 201 203 203 205 205 203 203 202 201 200 199 199 199 197 197 199 200 201 202 203 205 205 206 208 211 212 213 213 213 212 212 212 212 214 214 213 212 211 212 214 211 209
3 353 333 316 289 254 251 250 240 230 221 213 212 212 208 204 200 199 200 200 199 199 201 204 207 207 205 205 204 202 200 199 198 198 197 197 198 199 199 200 202 203 204 205 207 210 211 210 209 209 209 210 211 213 213 212 210 209 210 213 216 214 210
357 353 350 344 329 293 251 240 238 232 221 216 220 219 211 202 198 198 203 205 201 199 201 205 208 209 208 207 205 202 200 199 198 198 197 196 197 198 198 199 200 201 201 202 205 207 207 206 204 205 206 208 210 211 211 208 206 206 211 216 218 214 208
354 354 357 357 354 345 304 238 221 222 224 222 223 224 217 205 200 200 204 205 202 202 207 209 210 210 209 207 204 201 200 199 198 197 196 195 195 195 196 197 197 197 197 198 200 200 199 199 200 202 204 206 207 206 205 206 207 208 211 216 217 213 208
4 1 355 356 5 5 350 313 234 224 233 232 229 227 220 211 210 212 210 206 204 207 210 210 210 208 206 204 202 200 199 198 197 194 192 191 191 190 191 193 193 192 193 194 193 191 191 192 194 197 199 200 201 200 200 205 211 213 212 213 215 213 212
10 2 354 353 359 3 354 335 324 179 205 218 224 223 212 203 209 220 223 219 217 216 213 209 207 204 202 200 198 197 195 193 191 189 186 185 185 185 185 186 186 187 188 187 185 184 185 186 186 186 184 185 190 195 200 205 212 215 214 212 212 213 213
9 3 358 351 351 359 2 346 328 328 188 180 196 206 203 199 200 206 214 222 225 223 215 206 200 195 193 193 192 191 190 187 184 182 179 178 179 179 178 179 180 183 185 184 182 180 177 176 176 173 169 170 177 187 197 203 208 213 213 211 210 211 211
12 4 358 353 354 1 9 10 354 345 351 10 22 195 197 196 194 193 201 208 209 204 195 191 187 184 185 186 184 182 180 177 176 175 173 174 175 174 173 175 177 178 178 177 176 172 167 166 168 167 165 168 173 181 192 200 205 207 207 208 209 209 209
12 7 2 359 356 360 10 22 21 11 7 9 11 14 23 170 180 183 190 189 185 181 180 178 176 176 178 177 175 174 171 167 166 167 167 170 172 173 173 174 173 170 168 168 166 164 162 162 163 166 168 171 175 181 188 194 198 199 200 202 204 205 206
6 3 1 356 352 357 14 32 36 30 24 19 19 24 34 50 65 83 118 148 162 171 173 171 169 167 165 165 167 166 163 159 158 158 161 163 165 166 167 168 166 163 161 162 161 161 163 164 165 167 168 170 174 181 185 187 190 192 195 198 199 201 203
3 357 354 352 354 4 25 43 44 40 39 33 29 33 44 56 67 85 98 99 119 142 144 142 151 155 153 155 159 160 159 157 153 150 149 149 149 150 152 156 160 160 160 165 167 166 165 165 166 169 171 172 175 178 180 183 189 193 196 198 199 200 199
10 4 358 353 354 8 37 56 55 49 47 40 37 41 51 60 70 88 98 98 108 121 115 101 100 119 135 142 142 141 145 145 142 139 137 135 135 135 138 147 156 159 161 167 175 177 175 173 173 175 178 180 181 181 179 185 195 200 201 202 202 200 197
15 12 10 4 358 4 26 50 63 65 59 47 44 51 63 76 86 97 109 118 123 125 123 116 102 87 95 113 117 119 125 126 125 126 127 128 128 125 123 132 146 157 161 165 172 179 182 183 184 184 185 186 188 191 195 201 204 203 201 204 205 202 200
25 16 13 16 12 7 14 24 37 51 55 45 39 44 57 83 104 114 122 131 135 134 132 129 120 107 105 109 110 115 122 121 118 118 120 121 122 121 118 115 120 136 150 157 163 171 177 184 188 190 192 193 194 197 202 208 209 203 200 203 205 203 204
35 28 24 26 25 20 20 24 25 29 33 26 14 15 42 83 104 120 133 142 146 141 135 130 125 122 127 132 134 136 137 132 123 119 118 118 120 122 120 114 107 106 118 136 150 160 167 175 183 189 195 201 203 201 201 203 203 199 199 204 207 206 207
Height
691 693 695 697 700 703 705 706 708 711 715 719 722 726 730 734 737 740 743 747 750 753 756 759 762 765 768 770 772 775 778 780 782 785 787 789 790 792 794 796 798 800 801 803 804 805 807 809 811 812 814 816 816 817 818 820 821 822 824 825 826 827 827
687 689 690 692 695 697 698 699 702 705 709 713 717 721 725 728 732 735 738 742 744 748 751 754 757 760 763 766 769 772 774 776 779 782 784 786 788 790 792 793 795 797 799 800 801 803 805 807 808 810 812 813 814 815 817 818 819 820 822 823 824 825 826
682 684 685 687 689 690 692 694 697 700 703 708 712 716 720 722 726 729 733 737 740 744 748 750 753 755 758 762 766 768 771 773 776 779 781 783 785 787 790 791 793 794 796 797 799 801 802 804 806 807 809 810 812 813 815 816 817 818 820 822 823 823 824
677 677 678 680 681 683 686 689 692 695 698 702 705 709 713 717 721 724 728 731 735 740 744 747 749 751 754 757 761 765 767 770 773 775 778 781 783 785 787 789 790 792 793 794 796 798 800 802 803 805 807 808 810 811 812 814 815 816 818 820 822 822 823
672 671 674 676 677 680 683 685 687 690 694 697 700 704 708 713 718 721 725 728 731 735 738 742 745 748 751 754 757 761 764 767 770 772 776 778 781 783 784 785 787 788 790 792 794 795 797 799 800 802 804 806 808 809 810 811 813 815 816 818 820 820 821
669 670 671 673 675 677 678 680 681 683 687 691 695 700 704 710 714 717 721 725 728 732 735 739 742 744 747 750 754 758 761 764 767 770 773 775 778 780 781 782 784 785 787 789 791 793 794 796 798 799 801 803 805 806 808 809 811 813 814 816 817 818 819
664 666 667 668 670 672 673 674 675 677 682 686 691 697 702 706 710 713 717 721 724 729 732 735 738 740 744 747 751 755 758 761 764 767 770 772 775 776 778 780 781 782 784 786 788 789 791 793 794 796 799 800 802 803 805 807 808 810 811 813 814 815 816
657 659 662 663 664 665 667 669 671 674 679 684 689 694 698 702 705 709 712 716 720 724 727 730 733 736 740 744 748 751 754 757 760 764 767 769 771 773 775 776 777 779 781 782 784 786 788 790 791 794 796 798 799 801 802 804 805 807 808 809 810 811 812
650 653 655 656 657 659 661 664 667 671 676 682 686 689 693 697 700 703 706 711 716 719 721 725 728 732 736 740 743 746 750 753 757 760 763 765 767 769 771 773 774 776 777 779 781 783 785 786 788 790 793 795 797 798 800 802 803 804 804 805 806 807 808
647 650 650 651 652 654 657 660 664 669 674 678 681 685 689 693 696 699 703 707 710 713 716 720 724 728 732 736 739 742 746 749 752 756 759 761 763 765 767 769 771 772 774 776 778 780 782 783 785 788 790 792 793 795 797 799 799 800 801 801 802 803 804
645 647 647 649 650 652 656 660 664 667 670 673 677 681 685 689 693 696 699 702 705 708 712 716 720 723 727 731 735 738 741 744 747 751 753 756 758 761 763 766 767 769 771 773 775 777 778 781 783 785 786 788 790 793 795 795 795 796 797 798 798 800 801
644 644 646 648 650 653 656 658 661 663 665 669 673 677 681 685 688 691 695 698 702 705 708 712 715 718 722 726 729 733 735 738 742 745 748 751 754 757 759 762 764 765 767 770 772 774 775 777 779 781 783 785 788 790 791 792 792 792 794 795 796 798 799
641 641 644 646 648 652 655 657 659 660 662 665 667 672 675 678 682 686 690 694 698 701 704 707 711 714 717 721 724 727 729 732 735 739 743 746 749 753 755 758 760 762 764 766 769 771 772 774 776 778 780 783 786 787 788 788 788 789 791 792 794 796 798
640 641 643 644 647 651 653 655 655 657 659 661 664 667 670 673 677 680 684 689 693 697 700 703 706 709 712 715 718 721 723 726 730 734 737 742 745 749 751 754 756 758 761 763 765 767 769 771 773 775 778 781 783 784 785 785 785 786 788 789 792 795 797
639 640 642 644 647 648 649 651 652 654 656 658 661 664 667 671 674 677 681 684 688 692 695 698 702 704 707 710 712 714 717 722 726 729 733 737 741 744 747 750 753 755 758 760 762 764 766 768 771 773 775 778 779 781 781 781 781 781 783 786 790 793 796
637 636 638 640 642 643 644 646 646 649 652 654 657 661 664 667 670 672 676 679 683 687 690 694 698 700 702 704 705 709 714 718 722 725 729 733 736 739 742 746 749 752 754 756 758 760 763 765 768 770 772 774 775 777 777 777 776 777 780 784 789 793 797
634 634 635 636 637 639 639 641 643 645 648 651 654 656 659 662 664 668 671 675 679 682 685 690 693 695 697 698 701 706 711 714 718 721 725 728 731 735 738 742 746 748 750 752 754 757 759 762 764 766 768 770 771 772 772 771 771 773 777 783 789 796 799
632 632 633 634 635 637 638 639 640 642 645 648 650 653 655 657 660 664 667 670 673 676 681 685 687 689 691 693 698 703 706 710 713 716 720 723 727 730 734 739 742 744 747 749 750 753 755 758 760 761 763 765 767 767 767 766 767 769 775 782 790 794 793
629 629 629 631 632 634 636 637 637 638 640 643 645 647 649 651 655 658 660 662 665 670 676 679 681 683 686 689 694 698 701 705 708 711 715 717 721 726 731 735 737 740 742 744 746 749 752 753 755 757 759 760 761 762 762 762 763 767 774 780 785 785 784
625 625 624 626 627 628 630 631 633 633 634 636 638 640 643 647 649 651 653 656 661 666 670 673 675 678 681 685 689 692 696 700 703 706 709 712 717 722 726 729 732 735 738 740 743 745 747 748 750 752 753 755 756 757 758 759 760 765 772 775 776 777 782
622 621 622 623 624 624 624 625 627 629 629 631 633 636 641 644 646 648 651 655 659 662 664 667 670 673 676 680 684 687 691 694 697 700 704 708 713 717 720 723 727 730 734 736 738 740 741 743 745 746 748 750 752 754 755 755 758 764 768 769 769 772 779
622 620 619 619 619 620 619 619 620 622 623 626 629 633 636 638 641 644 648 652 657 660 661 663 665 668 672 675 678 681 685 688 692 696 700 704 708 711 714 718 721 725 728 731 733 735 737 739 740 742 744 746 748 750 751 753 757 761 763 765 767 771 775
622 620 618 616 617 616 616 617 617 618 620 623 625 628 630 633 636 640 644 649 653 656 659 661 662 663 666 669 672 675 678 682 686 690 695 699 702 705 708 712 715 719 722 725 728 730 731 733 735 737 740 743 745 747 749 751 754 758 760 762 766 769 772
624 621 618 615 615 616 616 617 618 619 621 623 625 627 628 631 634 638 641 645 648 651 655 657 658 659 661 663 666 669 673 677 681 685 689 693 696 699 703 707 710 713 716 719 722 724 726 729 732 735 737 739 742 744 746 748 750 753 756 759 762 765 767
629 627 623 618 616 616 616 618 619 620 621 623 624 626 628 631 634 636 639 641 643 646 649 651 653 654 655 657 660 664 668 672 676 679 683 687 690 694 698 701 705 708 711 714 717 720 723 726 729 731 733 736 739 740 742 743 746 750 753 756 759 761 764
632 630 628 624 621 617 615 616 617 619 620 620 620 622 625 628 631 634 636 637 639 641 643 644 645 647 649 652 656 661 664 667 670 674 677 681 685 690 694 697 701 705 708 711 714 717 720 722 725 728 730 733 735 737 738 741 744 749 752 754 757 760 762
633 631 629 627 625 620 616 615 615 616 617 617 618 620 623 626 627 628 629 631 635 636 636 636 639 642 646 650 653 657 660 662 665 668 672 677 682 686 691 694 697 701 704 708 711 714 716 719 722 725 727 729 732 734 737 740 744 747 750 753 755 758 761
635 632 630 629 626 623 619 616 615 615 615 615 616 618 621 624 626 625 625 627 628 628 628 631 635 639 643 646 649 652 655 658 661 665 669 674 679 683 688 691 695 698 702 705 708 711 714 717 720 723 725 728 731 733 736 740 742 745 748 751 754 757 759
636 635 633 630 629 626 622 620 617 615 614 614 614 615 616 619 622 624 625 626 626 625 627 629 632 635 639 642 645 648 651 654 657 662 666 670 675 680 684 688 693 697 700 703 706 709 712 715 718 721 724 727 731 733 735 738 741 743 746 748 752 754 757
635 634 632 630 629 626 623 622 621 618 615 613 613 613 613 615 617 620 622 624 625 627 630 631 632 634 637 640 642 645 648 651 654 658 662 667 672 677 682 686 690 694 697 699 702 705 709 712 716 720 723 727 730 732 735 737 739 741 744 746 749 752 755
635 634 632 630 628 625 623 623 623 622 620 617 615 614 612 613 615 616 618 619 621 624 628 631 633 635 636 638 640 642 646 649 653 656 659 664 669 674 678 683 687 691 694 697 700 703 707 711 715 718 722 726 728 731 733 735 737 740 742 745 748 750 753
637 635 634 633 630 627 626 625 625 626 625 623 621 619 616 615 615 616 618 619 620 622 625 628 631 634 637 639 641 643 645 648 652 655 658 662 667 671 675 679 683 687 691 695 699 703 706 710 713 717 720 724 727 729 732 734 736 738 740 743 746 749 752
639 638 637 637 635 632 629 627 628 629 629 628 627 624 622 619 618 619 621 622 622 623 624 626 628 632 636 639 643 646 647 648 651 654 658 662 665 670 674 677 680 684 688 692 697 701 705 708 711 715 718 722 725 728 730 732 734 736 738 741 744 747 750
641 640 639 639 637 635 632 630 630 631 631 631 630 628 626 624 622 621 622 623 624 625 627 629 631 633 636 640 645 649 650 651 651 652 656 661 665 669 674 677 680 684 687 690 694 698 702 706 710 713 717 720 724 727 730 733 734 736 738 740 743 746 749
643 643 642 641 641 639 636 634 633 633 632 632 631 629 628 627 626 624 622 623 625 625 628 633 637 639 640 642 647 652 655 655 653 651 653 658 663 668 674 678 681 685 688 691 694 697 700 704 708 712 715 719 722 726 729 731 733 734 737 740 742 744 746
647 646 645 645 644 643 640 638 636 634 634 633 631 629 628 627 627 627 624 623 624 624 626 631 637 644 647 646 648 653 657 657 655 653 654 657 662 668 675 680 683 686 689 692 695 697 700 703 707 711 714 717 720 723 726 727 729 732 736 739 741 743 745
650 649 648 647 646 644 643 641 639 637 636 634 632 631 629 627 627 628 627 626 625 624 626 628 631 640 648 651 652 656 659 660 659 656 656 659 664 670 676 681 685 688 691 693 696 698 701 705 708 711 713 716 718 721 723 725 728 731 735 738 740 743 745
652 651 650 649 647 646 644 643 642 641 639 638 636 635 633 630 628 628 629 630 628 627 628 629 631 637 646 652 656 660 664 664 662 659 659 662 667 673 678 682 686 690 693 695 697 700 703 707 710 712 714 715 717 720 722 724 726 729 733 736 739 742 744